Tiempo cada hora Cedzyna

Hoy, 23 Abril, Viernes

Tiempo Temperatura Precipitaciones Viento Presión Humedad
00:00 +1°C° 0 mm 2 mps 740 mmHg 87%
01:00 +1°C° 0 mm 2 mps 740 mmHg 90%
02:00 +1°C° 0 mm 2 mps 740 mmHg 91%
03:00 +1°C° 0 mm 2 mps 740 mmHg 92%
04:00 -1°C° 0 mm 3 mps 740 mmHg 93%
05:00 +1°C° 0 mm 3 mps 740 mmHg 85%
06:00 +1°C° 0 mm 4 mps 741 mmHg 78%
07:00 +2°C° 0 mm 5 mps 741 mmHg 70%
08:00 +3°C° 0 mm 5 mps 741 mmHg 61%
09:00 +6°C° 0 mm 5 mps 741 mmHg 52%
10:00 +7°C° 0 mm 5 mps 741 mmHg 44%
11:00 +7°C° 0.2 mm 5 mps 741 mmHg 46%
12:00 +7°C° 0.2 mm 6 mps 741 mmHg 49%
13:00 +7°C° 0.2 mm 6 mps 741 mmHg 51%
14:00 +7°C° 0.1 mm 6 mps 741 mmHg 53%
15:00 +7°C° 0.1 mm 6 mps 741 mmHg 55%
16:00 +6°C° 0.1 mm 7 mps 741 mmHg 56%
17:00 +4°C° 0.1 mm 6 mps 742 mmHg 64%
18:00 +3°C° 0.1 mm 6 mps 742 mmHg 71%
19:00 +2°C° 0.1 mm 5 mps 742 mmHg 79%
20:00 +1°C° 0.1 mm 5 mps 742 mmHg 82%
21:00 +1°C° 0.1 mm 4 mps 743 mmHg 85%
22:00 +2°C° 0.1 mm 3 mps 743 mmHg 88%
23:00 +1°C° 0 mm 3 mps 743 mmHg 90%

Mañana, 24 Abril, Sábado

Tiempo Temperatura Precipitaciones Viento Presión Humedad
00:00 0°C° 0 mm 3 mps 743 mmHg 92%
01:00 0°C° 0 mm 3 mps 743 mmHg 94%
02:00 -1°C° 0 mm 2 mps 743 mmHg 94%
03:00 -1°C° 0 mm 2 mps 743 mmHg 93%
04:00 -2°C° 0 mm 2 mps 743 mmHg 93%
05:00 0°C° 0 mm 3 mps 743 mmHg 84%
06:00 +2°C° 0 mm 3 mps 743 mmHg 75%
07:00 +3°C° 0 mm 3 mps 743 mmHg 66%
08:00 +5°C° 0 mm 4 mps 743 mmHg 59%
09:00 +6°C° 0 mm 4 mps 743 mmHg 52%
10:00 +7°C° 0 mm 4 mps 743 mmHg 44%
11:00 +8°C° 0.1 mm 4 mps 742 mmHg 46%
12:00 +8°C° 0.1 mm 5 mps 742 mmHg 48%
13:00 +8°C° 0.1 mm 5 mps 742 mmHg 50%
14:00 +8°C° 0.1 mm 5 mps 742 mmHg 55%
15:00 +7°C° 0.1 mm 5 mps 741 mmHg 60%
16:00 +7°C° 0.1 mm 5 mps 741 mmHg 65%
17:00 +6°C° 0.1 mm 4 mps 741 mmHg 70%
18:00 +5°C° 0.1 mm 3 mps 741 mmHg 76%
19:00 +4°C° 0.1 mm 3 mps 741 mmHg 81%
20:00 +3°C° 0 mm 3 mps 741 mmHg 84%
21:00 +2°C° 0 mm 3 mps 741 mmHg 86%
22:00 +2°C° 0 mm 3 mps 742 mmHg 89%
23:00 +2°C° 0 mm 2 mps 742 mmHg 90%

Pasado mañana, 25 Abril, Domingo

Tiempo Temperatura Precipitaciones Viento Presión Humedad
00:00 +1°C° 0 mm 2 mps 742 mmHg 91%
01:00 +2°C° 0 mm 1 mps 742 mmHg 91%
02:00 +1°C° 0 mm 1 mps 742 mmHg 92%
03:00 +1°C° 0 mm 1 mps 742 mmHg 92%
04:00 0°C° 0 mm 1 mps 742 mmHg 92%
05:00 +2°C° 0 mm 1 mps 742 mmHg 84%
06:00 +2°C° 0 mm 2 mps 742 mmHg 75%
07:00 +3°C° 0 mm 2 mps 742 mmHg 66%
08:00 +5°C° 0 mm 2 mps 742 mmHg 55%
09:00 +5°C° 0 mm 3 mps 742 mmHg 44%
10:00 +7°C° 0 mm 3 mps 742 mmHg 33%
11:00 +6°C° 0 mm 4 mps 742 mmHg 33%
12:00 +7°C° 0 mm 4 mps 741 mmHg 33%
13:00 +7°C° 0 mm 5 mps 741 mmHg 34%
14:00 +7°C° 0 mm 5 mps 741 mmHg 36%
15:00 +6°C° 0 mm 5 mps 741 mmHg 39%
16:00 +6°C° 0 mm 5 mps 741 mmHg 42%
17:00 +5°C° 0.1 mm 4 mps 741 mmHg 50%
18:00 +3°C° 0.1 mm 4 mps 741 mmHg 58%
19:00 +2°C° 0.1 mm 3 mps 741 mmHg 66%
20:00 +1°C° 0 mm 3 mps 741 mmHg 69%
21:00 +1°C° 0 mm 2 mps 741 mmHg 73%
22:00 +1°C° 0 mm 2 mps 741 mmHg 76%
23:00 -1°C° 0 mm 2 mps 741 mmHg 76%

26 Abril, Lunes

Tiempo Temperatura Precipitaciones Viento Presión Humedad
00:00 -1°C° 0 mm 2 mps 741 mmHg 77%
01:00 -2°C° 0 mm 2 mps 741 mmHg 77%
02:00 -2°C° 0 mm 2 mps 741 mmHg 78%
03:00 -2°C° 0 mm 2 mps 741 mmHg 78%
04:00 -3°C° 0 mm 2 mps 741 mmHg 79%
05:00 -1°C° 0 mm 2 mps 741 mmHg 71%
06:00 +1°C° 0 mm 2 mps 741 mmHg 62%
07:00 +2°C° 0 mm 3 mps 741 mmHg 54%
08:00 +3°C° 0 mm 3 mps 741 mmHg 48%
09:00 +4°C° 0 mm 3 mps 740 mmHg 42%
10:00 +6°C° 0 mm 4 mps 740 mmHg 36%
11:00 +6°C° 0 mm 4 mps 740 mmHg 37%
12:00 +6°C° 0 mm 4 mps 739 mmHg 39%
13:00 +6°C° 0 mm 4 mps 739 mmHg 40%
14:00 +6°C° 0.1 mm 4 mps 739 mmHg 42%
15:00 +6°C° 0.1 mm 4 mps 739 mmHg 44%
16:00 +6°C° 0.1 mm 4 mps 738 mmHg 46%
17:00 +5°C° 0 mm 3 mps 738 mmHg 52%
18:00 +4°C° 0 mm 2 mps 738 mmHg 58%
19:00 +2°C° 0 mm 2 mps 738 mmHg 63%
20:00 +2°C° 0 mm 2 mps 738 mmHg 65%
21:00 +1°C° 0 mm 2 mps 738 mmHg 67%
22:00 +1°C° 0 mm 2 mps 738 mmHg 68%
23:00 -1°C° 0 mm 2 mps 738 mmHg 69%

27 Abril, Martes

Tiempo Temperatura Precipitaciones Viento Presión Humedad
00:00 -1°C° 0 mm 2 mps 738 mmHg 70%
01:00 -1°C° 0 mm 2 mps 738 mmHg 70%
02:00 -1°C° 0 mm 2 mps 738 mmHg 72%
03:00 -2°C° 0 mm 2 mps 738 mmHg 73%
04:00 0°C° 0 mm 1 mps 738 mmHg 75%
05:00 +2°C° 0 mm 1 mps 738 mmHg 68%
06:00 +4°C° 0 mm 1 mps 738 mmHg 61%
07:00 +4°C° 0 mm 2 mps 738 mmHg 54%
08:00 +7°C° 0 mm 1 mps 738 mmHg 49%
09:00 +8°C° 0 mm 1 mps 738 mmHg 44%
10:00 +10°C° 0 mm 1 mps 738 mmHg 39%
11:00 +11°C° 0 mm 1 mps 738 mmHg 38%
12:00 +12°C° 0 mm 1 mps 737 mmHg 38%
13:00 +12°C° 0 mm 1 mps 737 mmHg 37%
14:00 +12°C° 0 mm 1 mps 736 mmHg 38%
15:00 +12°C° 0 mm 1 mps 736 mmHg 39%
16:00 +12°C° 0 mm 2 mps 736 mmHg 40%
17:00 +9°C° 0 mm 2 mps 736 mmHg 48%
18:00 +7°C° 0 mm 2 mps 735 mmHg 56%
19:00 +6°C° 0 mm 2 mps 735 mmHg 64%
20:00 +5°C° 0 mm 2 mps 735 mmHg 67%
21:00 +5°C° 0 mm 2 mps 735 mmHg 69%
22:00 +3°C° 0 mm 3 mps 735 mmHg 71%
23:00 +3°C° 0 mm 3 mps 735 mmHg 72%

28 Abril, Miércoles

Tiempo Temperatura Precipitaciones Viento Presión Humedad
00:00 +3°C° 0 mm 3 mps 735 mmHg 73%
01:00 +2°C° 0 mm 3 mps 734 mmHg 74%
02:00 +2°C° 0 mm 3 mps 734 mmHg 75%
03:00 +2°C° 0 mm 3 mps 734 mmHg 76%
04:00 +2°C° 0 mm 3 mps 733 mmHg 77%
05:00 +3°C° 0 mm 3 mps 733 mmHg 74%
06:00 +4°C° 0 mm 3 mps 733 mmHg 70%
07:00 +5°C° 0 mm 4 mps 732 mmHg 66%
08:00 +5°C° 0.2 mm 3 mps 732 mmHg 69%
09:00 +5°C° 0.2 mm 3 mps 732 mmHg 71%
10:00 +7°C° 0.2 mm 3 mps 732 mmHg 73%
11:00 +6°C° 0.5 mm 2 mps 732 mmHg 79%
12:00 +6°C° 0.5 mm 2 mps 732 mmHg 84%
13:00 +7°C° 0.5 mm 1 mps 732 mmHg 90%
14:00 +7°C° 0 mm 1 mps 732 mmHg 90%
15:00 +6°C° 0 mm 2 mps 732 mmHg 91%
16:00 +6°C° 0 mm 2 mps 732 mmHg 91%
17:00 +6°C° 0 mm 2 mps 732 mmHg 92%
18:00 +6°C° 0 mm 2 mps 732 mmHg 92%
19:00 +6°C° 0 mm 2 mps 733 mmHg 93%
20:00 +7°C° 0 mm 1 mps 733 mmHg 93%
21:00 +6°C° 0 mm 1 mps 733 mmHg 93%
22:00 +6°C° 0 mm 1 mps 733 mmHg 93%
23:00 +6°C° 0 mm 1 mps 733 mmHg 93%
Mostrar más

Necesitamos Su Consentimiento

Meteoprog y nuestros Proveedores de Servicios pueden almacenar y acceder a sus datos personales como cookies, identificadores de dispositivo u otras tecnologías similares de su dispositivo y procesar dichos datos para personalizar contenido y anuncios, además de ofrecer funciones de redes sociales y analizar el tráfico.

  • Almacenar y/o acceder a información en su dispositivo

    Se puede almacenar o acceder a cookies, identificadores de dispositivo u otra información de su dispositivo para los fines anteriormente indicados.

  • Anuncios y contenido personalizados, medición de anuncios y contenido, percepciones del público, y desarrollo de productos

    Los anuncios y el contenido pueden personalizarse en base a su perfil. Se pueden añadir más datos para personalizar mejor los anuncios y contenidos. Se puede medir el rendimiento de los anuncios y contenidos. Se puede obtener la percepción sobre el público que ha visto los anuncios y contenidos. Dichos datos pueden usarse para desarrollar o mejorar la experiencia del usuario, sistemas y software.

Al hacer clic en ‘Estoy De Acuerdo’ usted permitirá el uso de las cookies, identificadores de dispositivo, balizas web u otras tecnologías similares indicadas. Su configuración puede cambiarse desde el navegador de su dispositivo.

Para ciertos fines, los intereses legítimos pueden ser considerados por encima del consentimiento. Puede leer más sobre ello en nuestra Política de Privacidad y Cookies.